Tracking 30701 objects as of 14-Jun-2025
HD Live streaming from Space Station
objects crossing your sky now

STARLINK-32181

Track STARLINK-32181 now!
10-day predictions
STARLINK-32181 is classified as:


NORAD ID: 60349
Int'l Code: 2024-136W
Perigee: 481.4 km
Apogee: 483.4 km
Inclination: 53.2 °
Period: 94.1 minutes
Semi major axis: 6853 km
RCS: Unknown
Launch date: August 2, 2024
Source: United States (US)
Launch site: AIR FORCE EASTERN TEST RANGE (AFETR)
Your satellite tracking list
Your tracking list is empty




NASA's NSSDC Master Catalog

Two Line Element Set (TLE):
1 60349U 24136W   25165.47133403 -.00000836  00000-0 -16106-4 0  9999
2 60349  53.1608 241.1899 0001399  80.2720 279.8439 15.30184979 48609
Source of the keplerian elements: AFSPC